Orbital Elements at Epoch 2459200.5 (2020-Dec-17.0) TDB
Reference: JPL 16 (heliocentric ecliptic J2000)
Element | Value | Uncertainty (1-sigma) | Units |
e | .1001298246091583 | 5.6188e-08 | |
a | 2.586261983869348 | 1.4759e-08 | au |
q | 2.327300025031176 | 1.4427e-07 | au |
i | 7.252296486738365 | 6.3793e-06 | deg |
node | 198.9615720604202 | 3.3311e-05 | deg |
peri | 162.0407713801729 | 4.2501e-05 | deg |
M | 122.8149752916897 | 2.5611e-05 | deg |
tp | 2458682.230053826582 (2019-Jul-17.73005383) | 0.00010823 | TDB |
period | 1519.172887339702 4.16 | 1.3004e-05 3.56e-08 | d yr |
n | .2369710537886268 | 2.0285e-09 | deg/d |
Q | 2.845223942707519 | 1.6237e-08 | au |
|
| | Orbit Determination Parameters
Additional Information
|